TimeEDT,TemperatureF,Dew PointF,Humidity,Sea Level PressureIn,VisibilityMPH,Wind Direction,Wind SpeedMPH,Gust SpeedMPH,PrecipitationIn,Events,Conditions,WindDirDegrees,DateUTC
12:52 AM,45.0,43.0,93,29.95,10.0,Calm,Calm,-,N/A,,Clear,0,2012-10-01 04:52:00
1:52 AM,46.9,46.0,97,29.94,10.0,NE,3.5,-,N/A,,Clear,50,2012-10-01 05:52:00
2:52 AM,44.1,43.0,96,29.94,10.0,Calm,Calm,-,N/A,,Clear,0,2012-10-01 06:52:00
3:52 AM,46.0,44.1,93,29.92,10.0,Calm,Calm,-,N/A,,Clear,0,2012-10-01 07:52:00
4:52 AM,44.1,43.0,96,29.92,9.0,Calm,Calm,-,N/A,,Clear,0,2012-10-01 08:52:00
5:52 AM,42.1,41.0,96,29.94,9.0,Calm,Calm,-,N/A,,Clear,0,2012-10-01 09:52:00
6:52 AM,41.0,41.0,100,29.94,4.0,Calm,Calm,-,N/A,,Clear,0,2012-10-01 10:52:00
7:52 AM,44.1,42.1,93,29.95,6.0,Calm,Calm,-,N/A,,Clear,0,2012-10-01 11:52:00
8:52 AM,48.0,46.9,96,29.96,9.0,ESE,3.5,-,N/A,,Clear,120,2012-10-01 12:52:00
9:52 AM,54.0,48.0,80,29.96,10.0,ESE,6.9,-,N/A,,Clear,110,2012-10-01 13:52:00
10:52 AM,55.9,46.9,72,29.96,10.0,East,8.1,-,N/A,,Clear,100,2012-10-01 14:52:00
11:52 AM,59.0,46.0,62,29.94,10.0,Variable,5.8,-,N/A,,Clear,0,2012-10-01 15:52:00
12:52 PM,61.0,43.0,52,29.93,10.0,East,9.2,-,N/A,,Clear,80,2012-10-01 16:52:00
1:52 PM,61.0,43.0,52,29.92,10.0,East,9.2,-,N/A,,Clear,100,2012-10-01 17:52:00
2:52 PM,61.0,43.0,52,29.88,10.0,East,9.2,-,N/A,,Clear,90,2012-10-01 18:52:00
3:52 PM,62.1,45.0,53,29.87,10.0,East,12.7,-,N/A,,Clear,90,2012-10-01 19:52:00
4:52 PM,61.0,43.0,52,29.86,10.0,East,9.2,-,N/A,,Clear,100,2012-10-01 20:52:00
5:52 PM,61.0,44.1,54,29.86,10.0,East,10.4,-,N/A,,Clear,80,2012-10-01 21:52:00
6:52 PM,59.0,45.0,60,29.86,10.0,ENE,5.8,-,N/A,,Clear,70,2012-10-01 22:52:00
7:52 PM,57.0,46.9,69,29.85,10.0,NE,5.8,-,N/A,,Mostly Cloudy,50,2012-10-01 23:52:00
8:52 PM,57.0,48.0,72,29.84,10.0,NE,4.6,-,N/A,,Overcast,40,2012-10-02 00:52:00
9:52 PM,55.0,50.0,83,29.83,8.0,NE,4.6,-,0.01,Rain,Light Rain,50,2012-10-02 01:52:00
10:52 PM,53.6,51.8,94,29.81,10.0,NNE,4.6,-,N/A,,Overcast,30,2012-10-02 02:52:00
11:48 PM,53.6,51.8,94,29.82,2.5,East,10.4,-,0.14,Rain,Heavy Rain,100,2012-10-02 03:48:00
11:52 PM,52.0,52.0,100,29.82,2.5,East,9.2,-,0.19,Rain,Heavy Rain,90,2012-10-02 03:52:00